Back to catalog

STARLINK-5650

AliveCommunicationsVLEO
NORAD 55475·PAYLOAD·🇺🇸 United States

Launched Feb 2, 2023 from Cape Canaveral Space Force Station

Loading…

Next Passes (next 24 hours)

TLE

FreshSource: CelesTrak SupGP

Epoch: Sep 14, 2026, 15:00 UTC

1 55475C 23015AC  26257.62548611  .00038123  00000+0  13819-2 0  2579
2 55475  43.0036 341.8860 0001529 285.2350 133.0953 15.27533107    15

Track STARLINK-5650 in real time with AllMySat

Download on the App Store